"read_dt","SO2 (ppb)","flags","PMT voltage (V)","lamp voltage (V)","lamp intensity (Hz)","internal temp (C)","react chamber temp (C)","sample flow (l/min)","pres (mmHg)","SO2 bkg (ppb)","SO2 coefficient"
2014-11-11 00:00:00,2339E-3,5C000000,-0724,0833,12075,026.0,045.4,0.481,742.5,01.18,0.508
2014-11-11 00:01:00,2299E-3,5C000000,-0724,0833,12207,026.0,045.4,0.481,742.5,01.18,0.508
2014-11-11 00:02:00,2210E-3,5C000000,-0724,0833,12209,026.0,045.4,0.481,742.5,01.18,0.508
2014-11-11 00:03:00,2237E-3,5C000000,-0724,0833,11938,026.0,045.4,0.481,742.5,01.18,0.508
2014-11-11 00:04:00,2325E-3,5C000000,-0724,0832,12218,026.0,045.4,0.481,742.5,01.18,0.508
2014-11-11 00:05:00,2423E-3,5C000000,-0724,0832,12205,026.0,045.4,0.482,742.5,01.18,0.508
2014-11-11 00:06:00,2335E-3,5C000000,-0724,0832,12108,026.0,045.4,0.482,742.5,01.18,0.508
2014-11-11 00:07:00,2448E-3,5C000000,-0724,0832,12101,026.0,045.4,0.482,742.5,01.18,0.508
2014-11-11 00:08:00,2257E-3,5C000000,-0724,0832,12222,026.0,045.4,0.482,742.5,01.18,0.508
2014-11-11 00:09:00,2240E-3,5C000000,-0724,0832,12120,026.0,045.4,0.482,742.5,01.18,0.508
2014-11-11 00:10:00,2107E-3,5C000000,-0724,0831,12200,026.0,045.4,0.482,742.5,01.18,0.508
2014-11-11 00:11:00,2288E-3,5C000000,-0724,0832,12310,026.0,045.4,0.482,742.5,01.18,0.508
2014-11-11 00:12:00,2139E-3,5C000000,-0724,0833,12207,026.0,045.4,0.481,742.5,01.18,0.508
2014-11-11 00:13:00,2223E-3,5C000000,-0724,0833,12227,026.0,045.4,0.481,742.5,01.18,0.508
2014-11-11 00:14:00,2313E-3,5C000000,-0724,0833,12109,026.0,045.4,0.481,742.5,01.18,0.508
2014-11-11 00:15:00,2130E-3,5C000000,-0724,0832,12223,026.0,045.4,0.481,742.4,01.18,0.508
2014-11-11 00:16:00,2293E-3,5C000000,-0724,0832,12206,026.0,045.4,0.481,742.4,01.18,0.508
2014-11-11 00:17:00,2328E-3,5C000000,-0724,0832,12308,026.0,045.4,0.482,742.4,01.18,0.508
2014-11-11 00:18:00,2338E-3,5C000000,-0724,0832,12144,026.0,045.4,0.482,742.4,01.18,0.508
2014-11-11 00:19:00,2143E-3,5C000000,-0724,0832,12124,026.0,045.4,0.482,742.4,01.18,0.508
2014-11-11 00:20:00,2275E-3,5C000000,-0724,0832,11999,026.0,045.4,0.482,742.5,01.18,0.508
2014-11-11 00:21:00,2158E-3,5C000000,-0724,0833,12148,026.0,045.4,0.482,742.4,01.18,0.508
2014-11-11 00:22:00,2146E-3,5C000000,-0724,0832,12304,026.0,045.4,0.482,742.5,01.18,0.508
2014-11-11 00:23:00,2327E-3,5C000000,-0724,0833,12165,026.0,045.4,0.482,742.5,01.18,0.508
2014-11-11 00:24:00,2311E-3,5C000000,-0724,0832,12131,026.0,045.4,0.481,742.5,01.18,0.508
2014-11-11 00:25:00,2208E-3,5C000000,-0724,0832,12251,026.0,045.4,0.481,742.5,01.18,0.508
2014-11-11 00:26:00,2229E-3,5C000000,-0724,0833,12072,026.0,045.4,0.481,742.5,01.18,0.508
2014-11-11 00:27:00,2387E-3,5C000000,-0724,0833,12205,026.0,045.4,0.482,742.5,01.18,0.508
2014-11-11 00:28:00,2349E-3,5C000000,-0724,0832,12173,026.0,045.4,0.482,742.5,01.18,0.508
2014-11-11 00:29:00,2332E-3,5C000000,-0724,0833,12218,026.0,045.4,0.482,742.5,01.18,0.508
2014-11-11 00:30:00,2316E-3,5C000000,-0724,0833,12020,026.0,045.4,0.482,742.5,01.18,0.508
2014-11-11 00:31:00,2249E-3,5C000000,-0724,0833,12235,026.0,045.4,0.482,742.5,01.18,0.508
2014-11-11 00:32:00,2239E-3,5C000000,-0724,0832,12223,026.0,045.4,0.482,742.5,01.18,0.508
2014-11-11 00:33:00,2143E-3,5C000000,-0724,0833,12192,026.0,045.4,0.481,742.5,01.18,0.508
2014-11-11 00:34:00,2265E-3,5C000000,-0724,0831,12230,026.0,045.4,0.481,742.5,01.18,0.508
2014-11-11 00:35:00,2309E-3,5C000000,-0724,0833,12189,026.0,045.4,0.481,742.5,01.18,0.508
2014-11-11 00:36:00,2299E-3,5C000000,-0724,0833,12248,026.0,045.4,0.482,742.5,01.18,0.508
2014-11-11 00:37:00,2298E-3,5C000000,-0724,0832,12149,026.0,045.4,0.482,742.5,01.18,0.508
2014-11-11 00:38:00,2263E-3,5C000000,-0724,0833,12159,026.0,045.4,0.482,742.5,01.18,0.508
2014-11-11 00:39:00,2182E-3,5C000000,-0724,0833,12169,026.0,045.4,0.482,742.5,01.18,0.508
2014-11-11 00:40:00,2364E-3,5C000000,-0724,0833,12216,026.0,045.4,0.482,742.6,01.18,0.508
2014-11-11 00:41:00,2390E-3,5C000000,-0724,0833,12102,026.0,045.4,0.482,742.6,01.18,0.508
2014-11-11 00:42:00,2314E-3,5C000000,-0724,0833,12244,026.0,045.4,0.482,742.6,01.18,0.508
2014-11-11 00:43:00,2368E-3,5C000000,-0724,0833,12206,026.0,045.4,0.482,742.6,01.18,0.508
2014-11-11 00:44:00,2340E-3,5C000000,-0724,0833,12189,026.0,045.4,0.482,742.6,01.18,0.508
2014-11-11 00:45:00,2202E-3,5C000000,-0724,0832,12150,026.0,045.4,0.481,742.6,01.18,0.508
2014-11-11 00:46:00,2173E-3,5C000000,-0724,0832,12052,026.0,045.4,0.481,742.6,01.18,0.508
2014-11-11 00:47:00,2322E-3,5C000000,-0724,0833,12192,026.0,045.4,0.481,742.6,01.18,0.508
2014-11-11 00:48:00,2378E-3,5C000000,-0724,0832,12111,026.0,045.4,0.481,742.6,01.18,0.508
2014-11-11 00:49:00,2168E-3,5C000000,-0724,0832,12118,026.0,045.4,0.481,742.6,01.18,0.508
2014-11-11 00:50:00,2346E-3,5C000000,-0724,0833,12108,026.0,045.4,0.482,742.6,01.18,0.508
2014-11-11 00:51:00,2370E-3,5C000000,-0724,0833,12197,026.0,045.4,0.482,742.6,01.18,0.508
2014-11-11 00:52:00,2135E-3,5C000000,-0724,0832,12342,026.0,045.4,0.482,742.6,01.18,0.508
2014-11-11 00:53:00,2290E-3,5C000000,-0724,0832,12072,026.0,045.4,0.482,742.6,01.18,0.508
2014-11-11 00:54:00,2247E-3,5C000000,-0724,0831,12273,026.0,045.4,0.482,742.6,01.18,0.508
2014-11-11 00:55:00,2287E-3,5C000000,-0724,0832,12119,026.0,045.4,0.482,742.6,01.18,0.508
2014-11-11 00:56:00,2224E-3,5C000000,-0724,0832,12192,026.0,045.4,0.482,742.6,01.18,0.508
2014-11-11 00:57:00,2203E-3,5C000000,-0724,0832,12247,026.0,045.4,0.482,742.7,01.18,0.508
2014-11-11 00:58:00,2110E-3,5C000000,-0724,0832,12179,026.0,045.4,0.481,742.6,01.18,0.508
2014-11-11 00:59:00,2277E-3,5C000000,-0724,0832,12169,026.0,045.4,0.481,742.6,01.18,0.508
2014-11-11 01:00:00,2265E-3,5C000000,-0724,0831,12137,026.0,045.4,0.481,742.7,01.18,0.508
2014-11-11 01:01:00,2382E-3,5C000000,-0724,0832,12068,026.0,045.4,0.481,742.7,01.18,0.508
2014-11-11 01:02:00,2319E-3,5C000000,-0724,0832,11968,026.0,045.4,0.482,742.7,01.18,0.508
2014-11-11 01:03:00,2238E-3,5C000000,-0724,0832,12245,026.0,045.4,0.482,742.7,01.18,0.508
2014-11-11 01:04:00,2270E-3,5C000000,-0724,0831,12355,026.0,045.4,0.482,742.7,01.18,0.508
2014-11-11 01:05:00,2326E-3,5C000000,-0724,0832,12196,026.0,045.4,0.482,742.7,01.18,0.508
2014-11-11 01:06:00,2361E-3,5C000000,-0724,0833,12121,025.9,045.4,0.482,742.7,01.18,0.508
2014-11-11 01:07:00,2293E-3,5C000000,-0724,0833,12274,026.0,045.4,0.482,742.7,01.18,0.508
2014-11-11 01:08:00,2442E-3,5C000000,-0724,0832,12154,026.0,045.4,0.482,742.7,01.18,0.508
2014-11-11 01:09:00,2203E-3,5C000000,-0724,0833,12148,026.0,045.4,0.482,742.7,01.18,0.508
2014-11-11 01:10:00,2284E-3,5C000000,-0724,0832,12328,026.0,045.4,0.482,742.7,01.18,0.508
2014-11-11 01:11:00,2342E-3,5C000000,-0724,0832,12059,026.0,045.4,0.482,742.7,01.18,0.508
2014-11-11 01:12:00,2231E-3,5C000000,-0724,0832,12306,026.0,045.4,0.482,742.7,01.18,0.508
2014-11-11 01:13:00,2388E-3,5C000000,-0724,0831,12249,026.0,045.4,0.481,742.7,01.18,0.508
2014-11-11 01:14:00,2206E-3,5C000000,-0724,0831,12262,026.0,045.4,0.481,742.7,01.18,0.508
2014-11-11 01:15:00,2307E-3,5C000000,-0724,0833,12135,026.0,045.4,0.481,742.7,01.18,0.508
2014-11-11 01:16:00,2324E-3,5C000000,-0724,0833,12209,026.0,045.4,0.481,742.7,01.18,0.508
2014-11-11 01:17:00,2309E-3,5C000000,-0724,0834,12095,026.0,045.4,0.481,742.7,01.18,0.508
2014-11-11 01:18:00,2244E-3,5C000000,-0724,0833,12127,026.0,045.4,0.482,742.7,01.18,0.508
2014-11-11 01:19:00,2245E-3,5C000000,-0724,0833,12221,026.0,045.4,0.482,742.7,01.18,0.508
2014-11-11 01:20:00,2303E-3,5C000000,-0724,0833,12146,026.0,045.4,0.482,742.7,01.18,0.508
2014-11-11 01:21:00,2162E-3,5C000000,-0724,0833,12250,026.0,045.4,0.482,742.7,01.18,0.508
2014-11-11 01:22:00,2387E-3,5C000000,-0724,0832,11985,026.0,045.4,0.481,742.7,01.18,0.508
2014-11-11 01:23:00,2220E-3,5C000000,-0724,0833,12222,026.0,045.4,0.481,742.7,01.18,0.508
2014-11-11 01:24:00,2319E-3,5C000000,-0724,0833,12123,025.9,045.4,0.481,742.7,01.18,0.508
2014-11-11 01:25:00,2325E-3,5C000000,-0724,0833,12225,026.0,045.4,0.481,742.8,01.18,0.508
2014-11-11 01:26:00,2311E-3,5C000000,-0724,0833,12040,026.0,045.4,0.481,742.8,01.18,0.508
2014-11-11 01:27:00,2237E-3,5C000000,-0724,0832,12346,026.0,045.4,0.481,742.8,01.18,0.508
2014-11-11 01:28:00,2352E-3,5C000000,-0724,0832,12272,026.0,045.4,0.482,742.8,01.18,0.508
2014-11-11 01:29:00,2360E-3,5C000000,-0724,0833,12196,026.0,045.4,0.482,742.8,01.18,0.508
2014-11-11 01:30:00,2382E-3,5C000000,-0724,0833,12281,026.0,045.4,0.482,742.8,01.18,0.508
2014-11-11 01:31:00,2228E-3,5C000000,-0724,0833,12198,026.0,045.4,0.482,742.8,01.18,0.508
2014-11-11 01:32:00,2311E-3,5C000000,-0724,0832,11997,026.0,045.4,0.482,742.8,01.18,0.508
2014-11-11 01:33:00,2343E-3,5C000000,-0724,0833,12182,026.0,045.4,0.482,742.8,01.18,0.508
2014-11-11 01:34:00,2353E-3,5C000000,-0724,0833,12078,026.0,045.4,0.482,742.8,01.18,0.508
2014-11-11 01:35:00,2312E-3,5C000000,-0724,0832,12212,026.0,045.4,0.482,742.8,01.18,0.508
2014-11-11 01:36:00,2258E-3,5C000000,-0724,0832,12340,026.0,045.4,0.482,742.8,01.18,0.508
2014-11-11 01:37:00,2104E-3,5C000000,-0724,0833,12021,026.0,045.4,0.482,742.8,01.18,0.508
2014-11-11 01:38:00,2204E-3,5C000000,-0724,0832,12113,026.0,045.4,0.482,742.8,01.18,0.508
2014-11-11 01:39:00,2306E-3,5C000000,-0724,0833,12041,026.0,045.4,0.482,742.8,01.18,0.508
2014-11-11 01:40:00,2356E-3,5C000000,-0724,0832,12156,026.0,045.4,0.482,742.8,01.18,0.508
2014-11-11 01:41:00,2353E-3,5C000000,-0724,0833,12124,026.0,045.4,0.482,742.8,01.18,0.508
2014-11-11 01:42:00,2103E-3,5C000000,-0724,0832,12232,026.0,045.4,0.482,742.8,01.18,0.508
2014-11-11 01:43:00,2370E-3,5C000000,-0724,0832,12118,026.0,045.4,0.481,742.8,01.18,0.508
2014-11-11 01:44:00,2182E-3,5C000000,-0724,0833,12129,026.0,045.4,0.481,742.8,01.18,0.508
2014-11-11 01:45:00,2038E-3,5C000000,-0724,0833,12153,026.0,045.4,0.481,742.8,01.18,0.508
2014-11-11 01:46:00,2313E-3,5C000000,-0724,0832,12170,026.0,045.4,0.481,742.8,01.18,0.508
2014-11-11 01:47:00,2411E-3,5C000000,-0724,0832,12155,026.0,045.4,0.481,742.8,01.18,0.508
2014-11-11 01:48:00,2339E-3,5C000000,-0724,0833,12041,026.0,045.4,0.482,742.9,01.18,0.508
2014-11-11 01:49:00,2351E-3,5C000000,-0724,0833,12100,026.0,045.4,0.482,742.9,01.18,0.508
2014-11-11 01:50:00,2133E-3,5C000000,-0724,0834,12156,026.0,045.4,0.482,742.8,01.18,0.508
2014-11-11 01:51:00,2360E-3,5C000000,-0724,0832,12126,026.0,045.4,0.482,742.8,01.18,0.508
2014-11-11 01:52:00,2359E-3,5C000000,-0724,0832,12116,026.0,045.4,0.482,742.8,01.18,0.508
2014-11-11 01:53:00,2278E-3,5C000000,-0724,0833,12544,026.0,045.4,0.482,742.8,01.18,0.508
2014-11-11 01:54:00,2267E-3,5C000000,-0724,0832,12252,026.0,045.4,0.482,742.8,01.18,0.508
2014-11-11 01:55:00,2321E-3,5C000000,-0724,0833,12069,026.0,045.4,0.482,742.8,01.18,0.508
2014-11-11 01:56:00,2172E-3,5C000000,-0724,0833,12169,026.0,045.4,0.482,742.8,01.18,0.508
2014-11-11 01:57:00,2198E-3,5C000000,-0724,0834,12174,026.0,045.4,0.482,742.8,01.18,0.508
2014-11-11 01:58:00,2238E-3,5C000000,-0724,0833,12163,026.0,045.4,0.482,742.8,01.18,0.508
2014-11-11 01:59:00,2227E-3,5C000000,-0724,0833,12062,026.0,045.4,0.481,742.8,01.18,0.508
2014-11-11 02:00:00,2201E-3,5C000000,-0724,0833,12144,026.0,045.4,0.481,742.8,01.18,0.508
2014-11-11 02:01:00,2282E-3,5C000000,-0724,0832,12106,026.0,045.4,0.481,742.8,01.18,0.508
2014-11-11 02:02:00,2375E-3,5C000000,-0724,0832,12092,026.0,045.4,0.481,742.8,01.18,0.508
2014-11-11 02:03:00,2266E-3,5C000000,-0724,0833,12143,026.0,045.4,0.482,742.8,01.18,0.508
2014-11-11 02:04:00,2380E-3,5C000000,-0724,0832,12276,026.0,045.4,0.482,742.8,01.18,0.508
2014-11-11 02:05:00,2301E-3,5C000000,-0724,0832,12308,026.0,045.4,0.482,742.8,01.18,0.508
2014-11-11 02:06:00,2398E-3,5C000000,-0724,0832,12103,026.0,045.4,0.482,742.8,01.18,0.508
2014-11-11 02:07:00,2427E-3,5C000000,-0724,0832,12135,026.0,045.4,0.482,742.8,01.18,0.508
2014-11-11 02:08:00,2236E-3,5C000000,-0724,0833,12192,026.0,045.4,0.482,742.8,01.18,0.508
2014-11-11 02:09:00,2195E-3,5C000000,-0724,0833,12185,026.0,045.4,0.482,742.8,01.18,0.508
2014-11-11 02:10:00,2275E-3,5C000000,-0724,0833,12163,026.0,045.4,0.482,742.8,01.18,0.508
2014-11-11 02:11:00,2285E-3,5C000000,-0724,0832,12207,026.0,045.4,0.482,742.8,01.18,0.508
2014-11-11 02:12:00,2429E-3,5C000000,-0724,0833,12170,026.0,045.4,0.481,742.8,01.18,0.508
2014-11-11 02:13:00,2267E-3,5C000000,-0724,0832,12241,026.0,045.4,0.481,742.9,01.18,0.508
2014-11-11 02:14:00,2212E-3,5C000000,-0724,0832,12394,026.0,045.4,0.481,742.9,01.18,0.508
2014-11-11 02:15:00,2281E-3,5C000000,-0724,0833,12247,026.0,045.4,0.481,742.9,01.18,0.508
2014-11-11 02:16:00,2245E-3,5C000000,-0724,0832,12115,026.0,045.4,0.482,742.9,01.18,0.508
2014-11-11 02:17:00,2263E-3,5C000000,-0724,0832,12193,026.0,045.4,0.482,742.9,01.18,0.508
2014-11-11 02:18:00,2172E-3,5C000000,-0724,0834,12225,026.0,045.4,0.482,742.9,01.18,0.508
2014-11-11 02:19:00,2202E-3,5C000000,-0724,0833,12280,026.0,045.4,0.482,742.9,01.18,0.508
2014-11-11 02:20:00,2204E-3,5C000000,-0724,0833,12218,026.0,045.4,0.482,742.9,01.18,0.508
2014-11-11 02:21:00,2265E-3,5C000000,-0724,0832,12303,026.0,045.4,0.482,742.9,01.18,0.508
2014-11-11 02:22:00,2227E-3,5C000000,-0724,0833,12257,026.0,045.4,0.482,742.9,01.18,0.508
2014-11-11 02:23:00,2176E-3,5C000000,-0724,0831,12307,026.0,045.4,0.482,742.9,01.18,0.508
2014-11-11 02:24:00,2113E-3,5C000000,-0724,0831,12231,026.0,045.4,0.482,742.9,01.18,0.508
2014-11-11 02:25:00,2277E-3,5C000000,-0724,0832,12137,026.0,045.4,0.482,742.9,01.18,0.508
2014-11-11 02:26:00,2255E-3,5C000000,-0724,0833,12294,026.0,045.4,0.482,742.9,01.18,0.508
2014-11-11 02:27:00,2324E-3,5C000000,-0724,0833,12344,026.0,045.4,0.481,742.9,01.18,0.508
2014-11-11 02:28:00,2312E-3,5C000000,-0724,0831,12244,026.0,045.4,0.481,743.0,01.18,0.508
2014-11-11 02:29:00,2279E-3,5C000000,-0724,0832,12163,026.0,045.4,0.481,743.0,01.18,0.508
2014-11-11 02:30:00,2284E-3,5C000000,-0724,0832,12160,026.0,045.4,0.481,743.0,01.18,0.508
2014-11-11 02:31:00,2220E-3,5C000000,-0724,0832,12181,026.0,045.4,0.482,743.0,01.18,0.508
2014-11-11 02:32:00,2428E-3,5C000000,-0724,0833,12100,026.0,045.4,0.482,743.0,01.18,0.508
2014-11-11 02:33:00,2127E-3,5C000000,-0724,0833,12154,026.0,045.4,0.482,743.0,01.18,0.508
2014-11-11 02:34:00,2387E-3,5C000000,-0724,0833,12141,026.0,045.4,0.482,743.0,01.18,0.508
2014-11-11 02:35:00,2248E-3,5C000000,-0724,0832,12214,026.0,045.4,0.482,743.0,01.18,0.508
2014-11-11 02:36:00,2255E-3,5C000000,-0724,0832,12266,026.0,045.4,0.482,743.0,01.18,0.508
2014-11-11 02:37:00,2279E-3,5C000000,-0724,0833,12078,026.0,045.4,0.482,743.0,01.18,0.508
2014-11-11 02:38:00,2293E-3,5C000000,-0724,0833,12293,026.0,045.4,0.482,743.0,01.18,0.508
2014-11-11 02:39:00,2183E-3,5C000000,-0724,0832,12203,026.0,045.4,0.482,743.0,01.18,0.508
2014-11-11 02:40:00,2354E-3,5C000000,-0724,0832,12192,026.0,045.4,0.482,743.0,01.18,0.508
2014-11-11 02:41:00,2300E-3,5C000000,-0724,0832,12309,026.0,045.4,0.482,743.0,01.18,0.508
2014-11-11 02:42:00,2418E-3,5C000000,-0724,0832,12171,026.0,045.4,0.482,743.0,01.18,0.508
2014-11-11 02:43:00,2185E-3,5C000000,-0724,0833,12286,026.0,045.4,0.481,743.0,01.18,0.508
2014-11-11 02:44:00,2283E-3,5C000000,-0724,0832,12280,026.0,045.4,0.481,743.0,01.18,0.508
2014-11-11 02:45:00,2197E-3,5C000000,-0724,0832,11998,026.0,045.4,0.481,743.0,01.18,0.508
2014-11-11 02:46:00,2278E-3,5C000000,-0724,0833,12084,026.0,045.4,0.482,743.0,01.18,0.508
2014-11-11 02:47:00,2308E-3,5C000000,-0724,0832,12067,026.0,045.4,0.482,743.0,01.18,0.508
2014-11-11 02:48:00,2387E-3,5C000000,-0724,0832,12304,026.0,045.4,0.482,743.0,01.18,0.508
2014-11-11 02:49:00,2155E-3,5C000000,-0724,0833,12272,026.0,045.4,0.482,743.0,01.18,0.508
2014-11-11 02:50:00,2433E-3,5C000000,-0724,0833,12162,026.0,045.4,0.482,743.0,01.18,0.508
2014-11-11 02:51:00,2300E-3,5C000000,-0724,0833,12280,026.0,045.4,0.482,743.0,01.18,0.508
2014-11-11 02:52:00,2279E-3,5C000000,-0724,0833,12197,026.0,045.4,0.482,743.0,01.18,0.508
2014-11-11 02:53:00,2420E-3,5C000000,-0724,0833,12271,026.0,045.4,0.482,743.0,01.18,0.508
2014-11-11 02:54:00,2356E-3,5C000000,-0724,0832,12176,026.0,045.4,0.482,743.0,01.18,0.508
2014-11-11 02:55:00,2281E-3,5C000000,-0724,0832,12239,026.0,045.4,0.482,743.1,01.18,0.508
2014-11-11 02:56:00,2336E-3,5C000000,-0724,0833,12153,026.0,045.4,0.482,743.1,01.18,0.508
2014-11-11 02:57:00,2293E-3,5C000000,-0724,0833,12196,026.0,045.4,0.482,743.1,01.18,0.508
2014-11-11 02:58:00,2307E-3,5C000000,-0724,0832,12186,026.0,045.4,0.482,743.1,01.18,0.508
2014-11-11 02:59:00,2536E-3,5C000000,-0724,0833,12107,026.0,045.4,0.481,743.1,01.18,0.508
2014-11-11 03:00:00,2226E-3,5C000000,-0724,0833,12115,026.0,045.4,0.481,743.1,01.18,0.508
2014-11-11 03:01:00,2271E-3,5C000000,-0724,0832,12192,026.1,045.4,0.481,743.1,01.18,0.508
2014-11-11 03:02:00,2284E-3,5C000000,-0724,0832,12037,026.1,045.4,0.481,743.0,01.18,0.508
2014-11-11 03:03:00,2198E-3,5C000000,-0724,0833,12328,026.0,045.4,0.482,743.0,01.18,0.508
2014-11-11 03:04:00,2292E-3,5C000000,-0724,0833,12213,026.0,045.4,0.482,743.1,01.18,0.508
2014-11-11 03:05:00,2302E-3,5C000000,-0724,0831,12202,026.0,045.4,0.482,743.1,01.18,0.508
2014-11-11 03:06:00,2360E-3,5C000000,-0724,0833,12283,026.1,045.4,0.482,743.1,01.18,0.508
2014-11-11 03:07:00,2293E-3,5C000000,-0724,0833,12392,026.0,045.4,0.482,743.1,01.18,0.508
2014-11-11 03:08:00,2149E-3,5C000000,-0724,0832,12330,026.0,045.4,0.482,743.1,01.18,0.508
2014-11-11 03:09:00,2261E-3,5C000000,-0724,0832,12242,026.1,045.4,0.482,743.1,01.18,0.508
2014-11-11 03:10:00,2299E-3,5C000000,-0724,0832,12132,026.0,045.4,0.482,743.1,01.18,0.508
2014-11-11 03:11:00,2236E-3,5C000000,-0724,0834,12303,026.0,045.4,0.482,743.1,01.18,0.508
2014-11-11 03:12:00,2228E-3,5C000000,-0724,0833,12063,026.1,045.4,0.482,743.1,01.18,0.508
2014-11-11 03:13:00,2463E-3,5C000000,-0724,0833,12192,026.0,045.4,0.482,743.1,01.18,0.508
2014-11-11 03:14:00,2251E-3,5C000000,-0724,0833,12137,026.1,045.4,0.482,743.1,01.18,0.508
2014-11-11 03:15:00,2239E-3,5C000000,-0724,0833,12229,026.0,045.4,0.481,743.1,01.18,0.508
2014-11-11 03:16:00,2272E-3,5C000000,-0724,0832,12405,026.0,045.4,0.481,743.1,01.18,0.508
2014-11-11 03:17:00,2395E-3,5C000000,-0724,0833,12236,026.0,045.4,0.481,743.0,01.18,0.508
2014-11-11 03:18:00,2332E-3,5C000000,-0724,0832,12064,026.0,045.4,0.481,743.1,01.18,0.508
2014-11-11 03:19:00,2344E-3,5C000000,-0724,0832,12250,026.0,045.4,0.481,743.0,01.18,0.508
2014-11-11 03:20:00,2300E-3,5C000000,-0724,0832,12143,026.0,045.4,0.482,743.1,01.18,0.508
2014-11-11 03:21:00,2170E-3,5C000000,-0724,0833,12097,026.0,045.4,0.482,743.1,01.18,0.508
2014-11-11 03:22:00,2242E-3,5C000000,-0724,0833,12170,026.1,045.4,0.482,743.1,01.18,0.508
2014-11-11 03:23:00,2249E-3,5C000000,-0724,0833,12270,026.1,045.4,0.482,743.1,01.18,0.508
2014-11-11 03:24:00,2331E-3,5C000000,-0724,0833,12094,026.0,045.4,0.482,743.1,01.18,0.508
2014-11-11 03:25:00,2444E-3,5C000000,-0724,0833,12274,026.1,045.4,0.482,743.1,01.18,0.508
2014-11-11 03:26:00,2301E-3,5C000000,-0724,0832,12124,026.1,045.4,0.482,743.1,01.18,0.508
2014-11-11 03:27:00,2228E-3,5C000000,-0724,0833,12151,026.1,045.4,0.482,743.1,01.18,0.508
2014-11-11 03:28:00,2411E-3,5C000000,-0724,0833,12181,026.1,045.4,0.482,743.1,01.18,0.508
2014-11-11 03:29:00,2458E-3,5C000000,-0724,0833,12038,026.1,045.4,0.482,743.1,01.18,0.508
2014-11-11 03:30:00,2210E-3,5C000000,-0724,0833,12212,026.1,045.4,0.482,743.1,01.18,0.508
2014-11-11 03:31:00,2407E-3,5C000000,-0724,0833,11954,026.1,045.4,0.482,743.1,01.18,0.508
2014-11-11 03:32:00,2364E-3,5C000000,-0724,0833,12268,026.1,045.4,0.481,743.1,01.18,0.508
2014-11-11 03:33:00,2424E-3,5C000000,-0724,0833,12331,026.0,045.4,0.481,743.1,01.18,0.508
2014-11-11 03:34:00,2451E-3,5C000000,-0724,0833,12074,026.1,045.4,0.481,743.1,01.18,0.508
2014-11-11 03:35:00,2362E-3,5C000000,-0724,0832,12052,026.0,045.4,0.481,743.1,01.18,0.508
2014-11-11 03:36:00,2410E-3,5C000000,-0724,0832,12106,026.1,045.4,0.482,743.1,01.18,0.508
2014-11-11 03:37:00,2289E-3,5C000000,-0724,0833,12166,026.1,045.4,0.482,743.1,01.18,0.508
2014-11-11 03:38:00,2281E-3,5C000000,-0724,0832,12006,026.1,045.4,0.482,743.1,01.18,0.508
2014-11-11 03:39:00,2315E-3,5C000000,-0724,0833,12191,026.1,045.4,0.482,743.1,01.18,0.508
2014-11-11 03:40:00,2284E-3,5C000000,-0724,0833,12220,026.0,045.4,0.482,743.1,01.18,0.508
2014-11-11 03:41:00,2322E-3,5C000000,-0724,0833,12101,026.1,045.4,0.482,743.1,01.18,0.508
2014-11-11 03:42:00,2235E-3,5C000000,-0724,0832,12020,026.1,045.4,0.482,743.1,01.18,0.508
2014-11-11 03:43:00,2368E-3,5C000000,-0724,0833,12184,026.0,045.4,0.482,743.2,01.18,0.508
2014-11-11 03:44:00,2354E-3,5C000000,-0724,0832,12206,026.0,045.4,0.482,743.2,01.18,0.508
2014-11-11 03:45:00,2237E-3,5C000000,-0724,0833,11990,026.0,045.4,0.482,743.2,01.18,0.508
2014-11-11 03:46:00,2271E-3,5C000000,-0724,0832,12107,026.0,045.4,0.482,743.2,01.18,0.508
2014-11-11 03:47:00,2251E-3,5C000000,-0724,0832,12200,026.0,045.4,0.482,743.2,01.18,0.508
2014-11-11 03:48:00,2295E-3,5C000000,-0724,0832,12215,026.0,045.4,0.482,743.2,01.18,0.508
2014-11-11 03:49:00,2325E-3,5C000000,-0724,0832,12101,026.0,045.4,0.482,743.2,01.18,0.508
2014-11-11 03:50:00,2294E-3,5C000000,-0724,0832,12223,025.9,045.4,0.482,743.2,01.18,0.508
2014-11-11 03:51:00,2392E-3,5C000000,-0724,0833,12088,026.0,045.4,0.482,743.2,01.18,0.508
2014-11-11 03:52:00,2366E-3,5C000000,-0724,0833,12401,025.9,045.4,0.482,743.2,01.18,0.508
2014-11-11 03:53:00,2198E-3,5C000000,-0724,0832,12143,025.9,045.4,0.482,743.2,01.18,0.508
2014-11-11 03:54:00,2246E-3,5C000000,-0724,0833,12051,025.9,045.4,0.482,743.2,01.18,0.508
2014-11-11 03:55:00,2336E-3,5C000000,-0724,0833,12259,025.9,045.4,0.482,743.2,01.18,0.508
2014-11-11 03:56:00,2356E-3,5C000000,-0724,0833,12093,025.9,045.4,0.482,743.3,01.18,0.508
2014-11-11 03:57:00,2233E-3,5C000000,-0724,0833,12330,025.9,045.4,0.482,743.2,01.18,0.508
2014-11-11 03:58:00,2289E-3,5C000000,-0724,0832,12137,025.9,045.4,0.482,743.3,01.18,0.508
2014-11-11 03:59:00,2285E-3,5C000000,-0724,0833,12289,025.9,045.4,0.482,743.3,01.18,0.508
2014-11-11 04:00:00,2404E-3,5C000000,-0724,0833,12088,025.9,045.4,0.482,743.2,01.18,0.508
2014-11-11 04:01:00,2413E-3,5C000000,-0724,0832,12141,025.9,045.4,0.482,743.2,01.18,0.508
2014-11-11 04:02:00,2301E-3,5C000000,-0724,0833,12104,025.9,045.4,0.482,743.3,01.18,0.508
2014-11-11 04:03:00,2411E-3,5C000000,-0724,0832,12150,025.9,045.4,0.482,743.3,01.18,0.508
2014-11-11 04:04:00,2296E-3,5C000000,-0724,0832,12225,025.9,045.4,0.482,743.3,01.18,0.508
2014-11-11 04:05:00,2361E-3,5C000000,-0724,0832,12014,025.9,045.4,0.482,743.3,01.18,0.508
2014-11-11 04:06:00,2166E-3,5C000000,-0724,0832,12370,025.9,045.4,0.482,743.3,01.18,0.508
2014-11-11 04:07:00,2290E-3,5C000000,-0724,0832,12137,025.9,045.4,0.482,743.3,01.18,0.508
2014-11-11 04:08:00,2416E-3,5C000000,-0724,0832,12300,025.9,045.4,0.482,743.3,01.18,0.508
2014-11-11 04:09:00,2233E-3,5C000000,-0724,0832,12078,025.9,045.4,0.482,743.3,01.18,0.508
2014-11-11 04:10:00,2421E-3,5C000000,-0724,0831,12094,025.9,045.4,0.482,743.3,01.18,0.508
2014-11-11 04:11:00,2381E-3,5C000000,-0724,0832,12170,025.9,045.4,0.482,743.3,01.18,0.508
2014-11-11 04:12:00,2388E-3,5C000000,-0724,0832,12243,025.9,045.4,0.482,743.2,01.18,0.508
2014-11-11 04:13:00,2386E-3,5C000000,-0724,0832,12063,025.9,045.4,0.482,743.2,01.18,0.508
2014-11-11 04:14:00,2482E-3,5C000000,-0724,0833,12192,025.9,045.4,0.482,743.2,01.18,0.508
2014-11-11 04:15:00,2364E-3,5C000000,-0724,0832,12153,026.0,045.4,0.482,743.3,01.18,0.508
2014-11-11 04:16:00,2294E-3,5C000000,-0724,0833,12076,025.9,045.4,0.482,743.2,01.18,0.508
2014-11-11 04:17:00,2413E-3,5C000000,-0724,0833,11960,026.0,045.4,0.482,743.2,01.18,0.508
2014-11-11 04:18:00,2323E-3,5C000000,-0724,0833,12028,025.9,045.4,0.482,743.2,01.18,0.508
2014-11-11 04:19:00,2281E-3,5C000000,-0724,0832,12151,026.0,045.4,0.482,743.2,01.18,0.508
2014-11-11 04:20:00,2378E-3,5C000000,-0724,0832,12177,025.9,045.4,0.482,743.2,01.18,0.508